User: anonymous   Login
Location: Unspecified
(0.0000°N, 0.0000°E)
Time: 11:05:59
(UTC+00:00)
Language:

TBA - TO BE ASSIGNED - Orbit

View from above orbital plane
View from above orbital plane
View from above satellite
View from above satellite

Ground track
Ground track

The orbit is defined by the following mean orbital elements,

1 67605U          26145.43704709 +.00000000 +00000-0 +65038-3 0 00004
2 67605  97.2863 210.5294 0001518  92.2352 267.9065 15.33456092    05
Epoch (UTC): 25 May 2026 10:29:20
Eccentricity: 0.0001518
inclination: 97.2863°
perigee height: 464 km
apogee height: 467 km
right ascension of ascending node: 210.5294°
argument of perigee: 92.2352°
revolutions per day: 15.33456092
mean anomaly at epoch: 267.9065°

The dashed part of the orbit path shows where the satellite is in the earth's shadow,  

DLR